EW2082 Weather Reports


Display with metric or nautical units.
time (UTC)temp
F
wind
direction
speed
MPH
gust
MPH
rain 1hr
in
rain 24hr
in
rain mn
in
humidity
%
barometer
mb
20260903131004 64 153 0.0 0.0 0.00 0.00 0.00 92 1013.3
20260903130005 64 153 0.0 0.0 0.00 0.00 0.00 92 1013.3
20260903124004 64 153 0.0 0.0 0.00 0.00 0.00 92 1013.4
20260903122004 64 153 0.0 0.0 0.00 0.00 0.00 92 1013.3
20260903121004 64 153 0.0 0.0 0.00 0.00 0.00 92 1013.3
20260903120004 63 153 0.0 0.0 0.00 0.00 0.00 91 1013.3
20260903114004 63 153 0.0 0.0 0.00 0.00 0.00 91 1013.4
20260903113004 63 153 0.0 0.0 0.00 0.00 0.00 91 1013.6
20260903112004 63 153 0.0 0.0 0.00 0.00 0.00 91 1013.6
20260903111003 63 153 0.0 0.0 0.00 0.00 0.00 91 1013.5
20260903110004 64 153 0.0 0.0 0.00 0.00 0.00 90 1013.6
20260903105004 64 153 0.0 0.0 0.00 0.00 0.00 90 1013.6
20260903104004 64 153 0.0 0.0 0.00 0.00 0.00 90 1013.6
20260903102004 64 153 0.0 0.0 0.00 0.00 0.00 90 1013.6
20260903101004 64 153 0.0 0.0 0.00 0.00 0.00 90 1013.6
20260903100004 64 153 0.0 0.0 0.00 0.00 0.00 89 1013.6
20260903094003 65 153 0.0 0.0 0.00 0.00 0.00 89 1013.8
20260903093004 65 153 0.0 0.0 0.00 0.00 0.00 88 1013.8
20260903092004 66 153 0.0 0.0 0.00 0.00 0.00 88 1013.8
20260903091004 66 153 0.0 0.0 0.00 0.00 0.00 88 1013.9
20260903085004 66 153 0.0 0.0 0.00 0.00 0.00 88 1014.0
20260903082004 66 213 0.0 0.0 0.00 0.00 0.00 88 1014.2
20260903081005 66 184 0.0 0.0 0.00 0.00 0.00 87 1014.3
20260903080004 67 184 0.0 0.0 0.00 0.00 0.00 86 1014.3
20260903075004 67 184 0.0 0.0 0.00 0.00 0.00 85 1014.3
20260903074004 67 184 0.0 0.0 0.00 0.00 0.00 85 1014.3
20260903073005 67 184 0.0 0.0 0.00 0.00 0.00 83 1014.4
20260903072003 68 181 0.0 0.0 0.00 0.00 0.00 82 1014.3
20260903071003 68 212 0.0 1.0 0.00 0.00 0.00 82 1014.3
20260903070006 67 204 0.0 3.0 0.00 0.00 0.00 81 1014.4
20260903065004 67 194 0.0 0.0 0.00 0.00 0.00 81 1014.2
20260903064004 67 194 0.0 0.0 0.00 0.00 0.00 81 1014.2
20260903063003 68 225 0.0 0.0 0.00 0.00 0.00 82 1014.2
20260903062004 68 225 0.0 0.0 0.00 0.00 0.00 83 1014.2
20260903061004 68 176 0.0 0.0 0.00 0.00 0.00 83 1014.1
20260903060004 68 150 0.0 0.0 0.00 0.00 0.00 83 1014.1
20260903055004 69 166 0.0 0.0 0.00 0.00 0.00 83 1014.0
20260903054004 69 265 0.0 0.0 0.00 0.00 0.00 82 1014.1
20260903053003 69 207 0.0 0.0 0.00 0.00 0.00 82 1013.9
20260903052003 69 277 0.0 1.0 0.00 0.00 0.00 82 1013.9
20260903051004 69 263 0.0 1.0 0.00 0.00 0.00 81 1014.0
20260903050003 69 288 0.0 1.0 0.00 0.00 0.00 81 1014.0
20260903045004 69 225 0.0 0.0 0.00 0.00 0.00 80 1014.0
20260903043005 68 195 0.0 2.0 0.00 0.00 0.00 80 1013.9
20260903042004 68 164 0.0 0.0 0.00 0.00 0.00 79 1014.0
20260903041005 68 186 0.0 0.0 0.00 0.00 0.00 78 1013.9
20260903040008 68 186 0.0 0.0 0.00 0.00 0.00 77 1013.9
20260903035005 69 186 0.0 0.0 0.00 0.00 0.00 76 1013.9
20260903034005 69 221 0.0 0.0 0.00 0.00 0.00 76 1013.7
20260903032004 70 207 0.0 0.0 0.00 0.00 0.00 75 1013.7
20260903031004 70 155 0.0 0.0 0.00 0.00 0.00 74 1013.6
20260903030005 70 275 0.0 0.0 0.00 0.00 0.00 73 1013.7
20260903025004 70 250 0.0 2.0 0.00 0.00 0.00 73 1013.6
20260903024004 70 323 0.0 1.0 0.00 0.00 0.00 74 1013.6
20260903023004 70 307 0.0 0.0 0.00 0.00 0.00 74 1013.6
20260903022004 71 316 0.0 2.0 0.00 0.00 0.00 72 1013.6
20260903021004 72 34 0.0 0.0 0.00 0.00 0.00 71 1013.7
20260903020004 72 11 0.0 1.0 0.00 0.00 0.00 69 1013.6
20260903015004 73 242 0.0 2.0 0.00 0.00 0.00 67 1013.6
20260903014004 74 256 0.0 1.0 0.00 0.00 0.00 66 1013.5
20260903013004 75 70 0.0 1.0 0.00 0.00 0.00 64 1013.5
20260903012004 76 335 0.0 1.0 0.00 0.00 0.00 62 1013.6
20260903011004 76 106 0.0 2.0 0.00 0.00 0.00 63 1013.5
20260903010005 77 113 0.0 4.0 0.00 0.00 0.00 63 1013.5
20260903005005 77 20 0.0 2.0 0.00 0.00 0.00 61 1013.6
20260903002004 78 45 0.0 4.0 0.00 0.00 0.00 63 1013.6
20260903001004 79 115 0.0 3.0 0.00 0.00 0.00 61 1013.6
20260903000005 79 329 0.0 4.0 0.00 0.00 0.00 61 1013.7
20260902235004 80 240 0.0 3.0 0.00 0.00 0.00 59 1013.7
20260902234004 80 333 0.0 5.0 0.00 0.00 0.00 59 1013.7
20260902233004 80 26 0.0 5.0 0.00 0.00 0.00 59 1013.6
20260902232005 80 23 0.0 5.0 0.00 0.00 0.00 58 1013.6
20260902230005 81 113 0.0 4.0 0.00 0.00 0.00 54 1013.7
20260902225004 82 1 2.0 6.0 0.00 0.00 0.00 50 1013.9
20260902224004 83 30 0.0 4.0 0.00 0.00 0.00 46 1013.9
20260902223004 83 2 0.0 2.0 0.00 0.00 0.00 44 1013.9
20260902222004 83 287 2.0 3.0 0.00 0.00 0.00 40 1014.3
20260902214004 83 333 0.0 2.0 0.00 0.00 0.00 47 1014.7
20260902213005 83 12 0.0 6.0 0.00 0.00 0.00 49 1014.9
20260902212004 83 87 0.0 1.0 0.00 0.00 0.00 49 1015.0
20260902211004 83 271 1.0 2.0 0.00 0.00 0.00 48 1015.1
20260902210005 84 35 0.0 2.0 0.00 0.00 0.00 47 1015.0
20260902205004 84 50 0.0 3.0 0.00 0.00 0.00 51 1015.0
20260902204005 84 201 0.0 0.0 0.00 0.00 0.00 52 1015.0
20260902203004 83 178 0.0 0.0 0.00 0.00 0.00 51 1015.1
20260902202004 84 130 0.0 1.0 0.00 0.00 0.00 52 1015.0
20260902201004 83 135 0.0 5.0 0.00 0.00 0.00 50 1015.3
20260902195004 83 171 0.0 1.0 0.00 0.00 0.00 51 1015.5
20260902194004 83 172 0.0 3.0 0.00 0.00 0.00 52 1015.5
20260902193004 82 238 0.0 3.0 0.00 0.00 0.00 51 1015.6
20260902192005 82 9 0.0 2.0 0.00 0.00 0.00 52 1015.7
20260902191004 82 168 0.0 2.0 0.00 0.00 0.00 51 1015.9
20260902190005 81 172 0.0 3.0 0.00 0.00 0.00 53 1016.0
20260902185004 81 156 0.0 3.0 0.00 0.00 0.00 49 1016.0
20260902184004 81 168 0.0 1.0 0.00 0.00 0.00 54 1016.0
20260902183004 80 173 0.0 4.0 0.00 0.00 0.00 53 1016.0
20260902182004 81 99 0.0 3.0 0.00 0.00 0.00 55 1016.0
20260902181005 80 172 0.0 4.0 0.00 0.00 0.00 56 1015.9
20260902180007 80 170 3.0 4.0 0.00 0.00 0.00 56 1016.0
20260902175004 79 155 0.0 2.0 0.00 0.00 0.00 58 1016.1
20260902174004 79 170 0.0 3.0 0.00 0.00 0.00 59 1016.1
20260902173004 78 169 0.0 2.0 0.00 0.00 0.00 60 1016.1
20260902172004 78 172 0.0 3.0 0.00 0.00 0.00 60 1015.9
20260902171004 78 167 0.0 1.0 0.00 0.00 0.00 63 1015.9
20260902170004 77 171 0.0 3.0 0.00 0.00 0.00 63 1015.8
20260902165004 77 55 0.0 1.0 0.00 0.00 0.00 64 1015.8
20260902164004 76 171 0.0 3.0 0.00 0.00 0.00 65 1015.6
20260902161003 75 165 0.0 1.0 0.00 0.00 0.00 67 1015.7
20260902153005 74 176 0.0 2.0 0.00 0.00 0.00 73 1015.4
20260902152005 73 176 0.0 0.0 0.00 0.00 0.00 76 1015.5
20260902151005 72 176 0.0 0.0 0.00 0.00 0.00 79 1015.4
20260902150005 70 176 0.0 0.0 0.00 0.00 0.00 87 1015.5
20260902145005 67 176 0.0 0.0 0.00 0.00 0.00 94 1015.5
20260902144005 64 176 0.0 0.0 0.00 0.00 0.00 94 1015.5
20260902143005 61 176 0.0 0.0 0.00 0.00 0.00 94 1015.4
20260902142005 60 176 0.0 0.0 0.00 0.00 0.00 93 1015.2
20260902141005 60 176 0.0 0.0 0.00 0.00 0.00 94 1015.2
20260902140006 59 176 0.0 0.0 0.00 0.00 0.00 93 1015.1
20260902135005 59 176 0.0 0.0 0.00 0.00 0.00 93 1015.0
20260902134005 59 176 0.0 0.0 0.00 0.00 0.00 92 1014.9
20260902132005 59 176 0.0 0.0 0.00 0.00 0.00 92 1014.8